Date String (YYYY-MM-DD hh:mm:ss) UTC,Instrument flags,Ambient pressure (hPa),Sample flow (lpm),Bypass flow (lpm),Sample temperature (°C),Ambient temperature (°C),ASC tube jacket temperature (°C),LED temperature (°C),Box temperature (°C),Sample RH (%),Span deviation,Mass concentration (μg/m³),Mass concentration (μg/m³),Mass concentration (μg/m³)
DateTimeUTC,F1_M11,P_M11,Q1_M11,Q2_M11,T1_M11,T2_M11,T3_M11,T4_M11,T5_M11,U1_M11,ZSPAN_M11,X0_M11,X2_M11,X1_M11
2022-01-31 06:00:00,,0823.1,5.00,0.00,25.0,24.2,00.0,34.2,26.7,05.6,0000.0,0009.14,0005.33,0005.07
2022-01-31 06:01:00,,0823.1,5.00,0.00,25.0,24.2,00.0,34.2,26.7,05.7,0000.0,0009.46,0005.30,0005.03
2022-01-31 06:02:00,,0823.0,4.99,0.00,25.0,24.2,00.0,34.2,26.7,05.7,0000.0,0009.46,0005.30,0005.01
2022-01-31 06:03:00,,0822.9,5.02,0.00,25.0,24.1,00.0,34.1,26.7,05.8,0000.0,0010.04,0005.29,0005.00
2022-01-31 06:04:00,,0822.9,4.98,0.00,24.9,24.1,00.0,34.1,26.7,05.7,0000.0,0010.09,0005.28,0005.00
2022-01-31 06:05:00,,0822.9,5.01,0.00,24.9,24.1,00.0,34.1,26.6,05.7,0000.0,0009.97,0005.32,0005.00
2022-01-31 06:06:00,,0822.9,5.00,0.00,24.9,24.1,00.0,34.1,26.6,05.7,0000.0,0009.89,0005.32,0005.00
2022-01-31 06:07:00,,0822.9,5.01,0.00,24.9,24.1,00.0,34.1,26.6,05.7,0000.0,0009.87,0005.32,0005.00
2022-01-31 06:08:00,,0822.9,4.99,0.00,24.9,24.1,00.0,34.0,26.6,05.7,0000.0,0009.92,0005.30,0004.97
2022-01-31 06:09:00,,0823.0,5.01,0.00,24.9,24.0,00.0,34.0,26.6,05.8,0000.0,0009.90,0005.24,0004.92
2022-01-31 06:10:00,,0822.9,4.99,0.00,24.9,24.0,00.0,34.0,26.6,05.7,0000.0,0009.94,0005.21,0004.88
2022-01-31 06:11:00,,0823.0,5.00,0.00,24.8,24.0,00.0,34.0,26.6,05.6,0000.0,0009.68,0005.23,0004.86
2022-01-31 06:12:00,,0822.9,5.00,0.00,24.8,24.0,00.0,34.0,26.5,05.6,0000.0,0009.20,0005.22,0004.85
2022-01-31 06:13:00,,0822.9,5.00,0.00,24.8,24.0,00.0,34.0,26.6,05.7,0000.0,0009.23,0005.20,0004.84
2022-01-31 06:14:00,,0822.9,5.01,0.00,24.8,24.0,00.0,33.9,26.5,05.8,0000.0,0008.67,0005.19,0004.85
2022-01-31 06:15:00,,0822.9,4.99,0.00,24.8,24.0,00.0,33.9,26.5,05.7,0000.0,0008.49,0005.24,0004.89
2022-01-31 06:16:00,,0822.9,5.00,0.00,24.8,24.0,00.0,33.9,26.5,05.7,0000.0,0008.50,0005.26,0004.92
2022-01-31 06:17:00,,0823.0,5.01,0.00,24.8,24.0,00.0,33.9,26.5,05.6,0000.0,0008.50,0005.28,0004.96
2022-01-31 06:18:00,,0823.0,4.99,0.00,24.7,24.0,00.0,33.9,26.5,05.7,0000.0,0008.52,0005.31,0004.98
2022-01-31 06:19:00,,0822.9,5.01,0.00,24.7,24.0,00.0,33.9,26.5,05.6,0000.0,0008.50,0005.35,0005.02
2022-01-31 06:20:00,,0822.9,5.00,0.00,24.8,24.0,00.0,33.8,26.5,05.6,0000.0,0008.58,0005.38,0005.07
2022-01-31 06:21:00,,0822.8,5.00,0.00,24.8,24.0,00.0,33.8,26.5,05.7,0000.0,0008.43,0005.41,0005.11
2022-01-31 06:22:00,,0822.8,5.01,0.00,24.7,24.0,00.0,33.8,26.5,05.7,0000.0,0008.43,0005.42,0005.12
2022-01-31 06:23:00,,0822.7,4.99,0.00,24.7,24.0,00.0,33.8,26.5,05.7,0000.0,0008.37,0005.42,0005.15
2022-01-31 06:24:00,,0822.7,4.99,0.00,24.7,24.0,00.0,33.8,26.5,05.6,0000.0,0008.36,0005.47,0005.20
2022-01-31 06:25:00,,0822.7,5.00,0.00,24.7,24.0,00.0,33.8,26.5,05.6,0000.0,0008.49,0005.55,0005.27
2022-01-31 06:26:00,,0822.7,4.99,0.00,24.7,24.0,00.0,33.8,26.5,05.7,0000.0,0008.49,0005.56,0005.29
2022-01-31 06:27:00,,0822.7,5.00,0.00,24.7,23.9,00.0,33.8,26.5,05.7,0000.0,0008.51,0005.58,0005.32
2022-01-31 06:28:00,,0822.7,5.01,0.00,24.7,23.9,00.0,33.8,26.5,05.7,0000.0,0008.55,0005.61,0005.35
2022-01-31 06:29:00,,0822.7,4.99,0.00,24.7,23.9,00.0,33.7,26.4,05.6,0000.0,0008.65,0005.64,0005.38
2022-01-31 06:30:00,,0822.7,5.01,0.00,24.7,23.9,00.0,33.7,26.4,05.6,0000.0,0008.71,0005.68,0005.42
2022-01-31 06:31:00,,0822.7,4.98,0.00,24.6,23.8,00.0,33.7,26.4,05.6,0000.0,0008.68,0005.75,0005.47
2022-01-31 06:32:00,,0822.7,5.01,0.00,24.6,23.8,00.0,33.7,26.4,05.6,0000.0,0008.75,0005.80,0005.50
2022-01-31 06:33:00,,0822.7,5.00,0.00,24.6,23.8,00.0,33.7,26.4,05.6,0000.0,0009.00,0005.83,0005.54
2022-01-31 06:34:00,,0822.7,4.99,0.00,24.6,23.8,00.0,33.7,26.4,05.6,0000.0,0009.12,0005.82,0005.52
2022-01-31 06:35:00,,0822.7,5.00,0.00,24.6,23.8,00.0,33.7,26.4,05.5,0000.0,0009.03,0005.78,0005.49
2022-01-31 06:36:00,,0822.7,5.02,0.00,24.6,23.8,00.0,33.7,26.4,05.5,0000.0,0008.93,0005.72,0005.44
2022-01-31 06:37:00,,0822.7,4.99,0.00,24.6,23.8,00.0,33.7,26.4,05.4,0000.0,0009.05,0005.73,0005.42
2022-01-31 06:38:00,,0822.7,5.01,0.00,24.6,23.8,00.0,33.7,26.3,05.4,0000.0,0009.02,0005.70,0005.39
2022-01-31 06:39:00,,0822.6,5.00,0.00,24.6,23.8,00.0,33.6,26.4,05.4,0000.0,0008.99,0005.68,0005.37
2022-01-31 06:40:00,,0822.6,4.99,0.00,24.6,23.8,00.0,33.6,26.3,05.4,0000.0,0008.90,0005.66,0005.35
2022-01-31 06:41:00,,0822.6,5.02,0.00,24.6,23.8,00.0,33.6,26.4,05.3,0000.0,0008.83,0005.61,0005.31
2022-01-31 06:42:00,,0822.6,4.99,0.00,24.6,23.8,00.0,33.6,26.4,05.4,0000.0,0008.79,0005.58,0005.29
2022-01-31 06:43:00,,0822.7,5.00,0.00,24.6,23.8,00.0,33.6,26.4,05.5,0000.0,0008.70,0005.56,0005.29
2022-01-31 06:44:00,,0822.6,5.01,0.00,24.6,23.8,00.0,33.6,26.4,05.6,0000.0,0008.48,0005.60,0005.32
2022-01-31 06:45:00,,0822.5,5.01,0.00,24.6,23.8,00.0,33.6,26.4,05.6,0000.0,0008.48,0005.69,0005.42
2022-01-31 06:46:00,,0822.5,4.99,0.00,24.6,23.8,00.0,33.6,26.4,05.6,0000.0,0008.61,0005.79,0005.50
2022-01-31 06:47:00,,0822.5,5.00,0.00,24.6,23.8,00.0,33.6,26.4,05.6,0000.0,0009.12,0005.91,0005.62
2022-01-31 06:48:00,,0822.5,5.00,0.00,24.6,23.8,00.0,33.6,26.3,05.5,0000.0,0009.47,0005.98,0005.72
2022-01-31 06:49:00,,0822.5,5.00,0.00,24.6,23.8,00.0,33.6,26.3,05.6,0000.0,0009.52,0006.08,0005.84
2022-01-31 06:50:00,,0822.5,5.01,0.00,24.6,23.8,00.0,33.6,26.4,05.5,0000.0,0009.68,0006.20,0005.96
2022-01-31 06:51:00,,0822.5,4.99,0.00,24.5,23.8,00.0,33.5,26.3,05.4,0000.0,0009.76,0006.22,0005.97
2022-01-31 06:52:00,,0822.5,5.01,0.00,24.5,23.8,00.0,33.5,26.3,05.4,0000.0,0009.76,0006.21,0005.97
2022-01-31 06:53:00,,0822.6,4.99,0.00,24.5,23.7,00.0,33.5,26.3,05.3,0000.0,0009.69,0006.19,0005.96
2022-01-31 06:54:00,,0822.5,5.01,0.00,24.5,23.7,00.0,33.5,26.3,05.3,0000.0,0009.62,0006.15,0005.92
2022-01-31 06:55:00,,0822.4,4.99,0.00,24.5,23.7,00.0,33.5,26.3,05.3,0000.0,0009.51,0006.06,0005.84
2022-01-31 06:56:00,,0822.4,5.02,0.00,24.5,23.7,00.0,33.5,26.3,05.3,0000.0,0009.42,0005.95,0005.73
2022-01-31 06:57:00,,0822.4,5.00,0.00,24.5,23.7,00.0,33.5,26.2,05.3,0000.0,0009.32,0005.85,0005.63
2022-01-31 06:58:00,,0822.4,5.00,0.00,24.4,23.7,00.0,33.5,26.2,05.3,0000.0,0009.04,0005.73,0005.52
2022-01-31 06:59:00,,0822.4,5.01,0.00,24.4,23.6,00.0,33.5,26.2,05.4,0000.0,0008.36,0005.65,0005.44
